www.pogodaiklimat.ru

Погода и климат >> Архив погоды >> Индия >> Belgaum Airport


ПОГОДА в Belgaum Airport

  • Прогноз погоды в Belgaum Airport
  • Монитор погоды в Belgaum Airport
  • Климат города

АРХИВ ПОГОДЫ в Belgaum Airport

Время (UTC), дата Ветер
(напр.,м/с)
 
Видим.   Явления Облачность Т
(С)
Тd
(С)
f
(%)
Тe
(С)
Тes
(С)
Комфортность P
(гПа)
Po
(гПа)
Тmin
(С)
Tmax
(С)
R
(мм)
R24
(мм)
S
(см)
21 11.08 З 3 4000 м слабый дождь {морось} 10/6 240 м
[Frnb Ac As]
+21.2 +20.3 95 +26 +26 душно 1006.9 924.8 7
00 12.08 З 3 4000 м слабый дождь {морось} 10/6 210 м
[Frnb Ac As]
+21.0 +20.4 96 +27 +27 душно 1006.1 923.7 9
03 12.08 З 4 4000 м {морось} 10/8 210 м
[St Ac As]
+21.2 +20.0 93 +26 +26 душно 1007.4 925.1 +19.8 +25.1 9
06 12.08 З 4 4000 м {морось} 10/8 210 м
[St Ac As]
+22.8 +20.4 86 +30 +30 очень
душно
1006.5 924.7
09 12.08 З 4 4000 м слабый дождь {морось} 10/8 210 м
[St Ac As]
+22.2 +20.7 91 +29 +29 очень
душно
1005.3 923.5 0.4
12 12.08 З 6 4000 м {дождь, морось} 10/8 210 м
[St Ac As]
+22.0 +20.5 91 +28 +28 душно 1003.7 921.8 +23.4 0.5
15 12.08 З 7 4000 м слабый дождь 10/6 210 м
[Frnb Ac As]
+21.4 +20.2 93 +27 +27 душно 1005.4 923.3 1
18 12.08 З 6 4000 м слабый дождь 10/6 210 м
[Frnb As op]
+21.0 +20.1 95 +26 +26 душно 1006.0 923.6 4
21 12.08 З 6 4000 м слабый дождь 10/6 210 м
[Frnb Ac As]
+20.6 +19.7 95 +25 +25 комфорт 1004.1 921.9 6
00 13.08 З 6 4000 м слабый дождь 10/6 200 м
[Frnb As op]
+20.8 +19.9 95 +25 +25 комфорт 1003.9 921.7 10
03 13.08 З 6 4000 м слабая морось {дождь} 10/8 210 м
[Frnb Ac As]
+21.0 +20.4 96 +26 +26 душно 1005.0 922.8 +19.6 +23.4 12
06 13.08 З 7 4000 м слабый дождь {морось} 10/8 210 м
[St Ac As]
+22.4 +20.9 91 +29 +29 очень
душно
1005.3 923.5 0.2
09 13.08 З 7 4000 м слабая морось {дождь} 10/8 210 м
[Frnb Ac As]
+23.0 +21.5 91 +31 +31 очень
душно
1004.4 922.8 2
12 13.08 З 7 4000 м слабая морось {дождь} 10/8 210 м
[Frnb Ac As]
+21.8 +20.9 95 +28 +28 душно 1004.2 922.3 +23.2 5
15 13.08 З 6 4000 м слабый дождь 10/8 210 м
[Frnb Ac As]
+21.2 +20.6 96 +26 +26 душно 1005.3 923.2 7
18 13.08 З 5 4000 м слабый дождь 10/8 210 м
[Frnb Ac As]
+21.0 +20.4 96 +26 +26 душно 1006.2 923.8 9
21 13.08 З 5 4000 м слабый дождь 10/8 210 м
[Frnb Ac As]
+21.2 +20.9 98 +27 +27 душно 1004.6 922.4 12
00 14.08 З 6 4000 м {дождь} 10/8 210 м
[Frnb Ac As]
+21.2 +20.6 96 +26 +26 душно 1003.8 921.6 13
03 14.08 З 5 4000 м слабая морось {дождь} 10/8 210 м
[Frnb Ac As]
+21.6 +21.3 98 +28 +28 очень
душно
1005.6 923.5 +20.1 +23.2 14
06 14.08 З 7 4000 м слабый дождь {морось} 10/8 210 м
[Frnb Ac As]
+23.2 +22.0 93 +32 +32 очень
душно
1005.5 924.0 0.3
09 14.08 З 6 4000 м {морось} 9/5 210 м
[St Ac trans Ci fib]
+25.0 +21.2 79 +32 +33 очень
душно
1003.3 922.2 0.5
12 14.08 З 6 4000 м слабая морось {дождь} 10/6 210 м
[Frnb Ac As]
+22.4 +20.9 91 +29 +29 очень
душно
1003.3 921.7 +25.6 0.6
15 14.08 З 4 4000 м в посл. час дождь {морось} 10/8 210 м
[St Ac As]
+21.6 +20.7 95 +27 +27 душно 1005.0 923.0 1
18 14.08 З 3 4000 м {дождь, морось} 10/8 210 м
[St Ac As]
+21.6 +20.7 95 +27 +27 душно 1005.7 923.6 2
21 14.08 З 4 4000 м в посл. час дождь 10/8 210 м
[St Ac As]
+21.4 +20.8 96 +27 +27 душно 1004.1 922.2 2
00 15.08 З 3 4000 м слабый дождь {морось} 10/8 210 м
[Frnb Ac As]
+21.4 +20.8 96 +27 +27 душно 1003.9 922.0 3
03 15.08 З 4 4000 м в посл. час морось {дождь} 10/6 210 м
[St Ac As]
+21.6 +20.7 95 +27 +28 душно 1005.0 923.0 +20.4 +25.6 4
06 15.08 З 6 4000 м {дождь, морось} 10/6 210 м
[St Ac As]
+24.0 +21.1 84 +30 +31 очень
душно
1004.8 923.3 0.8
09 15.08 З 5 4000 м слабая морось {дождь} 10/8 210 м
[Frnb Ac As]
+23.2 +21.4 90 +31 +32 очень
душно
1003.7 922.3 1
12 15.08 З 5 4000 м слабый дождь {морось} 10/8 210 м
[Frnb Ac As]
+22.0 +21.1 95 +28 +29 душно 1003.8 921.9 +24.4 2
15 15.08 З 4 4000 м в посл. час морось {дождь} 10/8 210 м
[Frnb Ac As]
+21.4 +20.5 95 +27 +27 душно 1004.7 922.8 2
18 15.08 З 4 4000 м слабая морось {дождь} 10/8 210 м
[Frnb Ac As]
+21.4 +20.8 96 +27 +27 душно 1004.8 922.9 2
21 15.08 З 4 4000 м слабый дождь {морось} 10/8 210 м
[Frnb Ac As]
+21.4 +21.1 98 +27 +27 душно 1003.7 921.8 3
00 16.08 З 5 4000 м слабый дождь {морось} 10/8 210 м
[Frnb Ac As]
+21.2 +20.9 98 +27 +27 душно 1003.5 921.6 4
03 16.08 З 7 4000 м слабая морось {дождь} 10/8 150 м
[Frnb Ac As]
+21.6 +20.7 95 +27 +27 душно 1004.2 922.3 +20.4 +24.4 7
06 16.08 З 7 4000 м в посл. час дождь {морось} 10/8 180 м
[Frnb Ac As]
+22.6 +20.8 90 +30 +30 очень
душно
1004.0 922.4 0.2
09 16.08 З 6 4000 м слабый дождь 10/8 210 м
[St Ac As]
+22.0 +20.8 93 +28 +29 душно 1004.1 922.2 1
12 16.08 З 7 4000 м в посл. час дождь 10/8 210 м
[St Ac As]
+21.8 +20.6 93 +28 +28 душно 1003.1 921.2 +23.2 2
15 16.08 З 6 4000 м в посл. час морось 10/6 210 м
[St Ac As]
+21.0 +20.1 95 +26 +26 душно 1004.5 922.3 2
18 16.08 З 6 4000 м в посл. час дождь {морось} 10/6 210 м
[St Ac As]
+21.0 +20.1 95 +26 +26 душно 1004.6 922.4 2
21 16.08 З 6 4000 м {морось} 10/6 210 м
[St Ac As]
+21.4 +19.9 91 +26 +26 душно 1003.0 921.1 3
00 17.08 З 7 4000 м {морось} 9/5 210 м
[St Ac trans Ci fib]
+21.4 +19.9 91 +26 +26 душно 1002.9 921.0 3
03 17.08 З 5 4000 м в посл. час дождь 10/8 210 м
[St Ac As]
+21.8 +20.9 95 +28 +28 душно 1004.6 922.7 +20.2 +23.2 5
06 17.08 З 5 4000 м слабая морось 10/8 210 м
[St Ac As]
+23.6 +20.9 85 +30 +30 очень
душно
1004.5 923.0 0.1
09 17.08 З 5 4000 м {дождь, морось} 10/8 210 м
[St Ac As]
+25.0 +20.6 77 +31 +32 очень
душно
1003.1 922.0 0.6
12 17.08 З 5 4000 м {дождь, морось} 10/8 210 м
[St Ac As]
+23.0 +20.6 86 +30 +30 очень
душно
1003.3 921.7 +25.2 0.6
15 17.08 З 7 4000 м {дождь} 10/8 210 м
[Frnb Ac As]
+21.4 +20.5 95 +27 +27 душно 1004.0 922.1 1
18 17.08 З 4 4000 м слабая морось {дождь} 10/8 210 м
[Frnb Ac As]
+21.4 +20.8 96 +27 +27 душно 1005.4 923.3 3
21 17.08 З 5 4000 м слабый дождь {морось} 10/8 210 м
[Frnb Ac As]
+21.0 +20.4 96 +26 +26 душно 1004.0 921.8 6
00 18.08 З 5 4000 м в посл. час дождь 10/8 210 м
[Frnb Ac As]
+20.8 +20.5 98 +26 +26 душно 1004.3 922.1 7
03 18.08 З 5 4000 м {морось} 9/6 210 м
[St Ac As Ci fib]
+22.2 +20.7 91 +29 +29 очень
душно
1005.8 924.0 +19.8 +25.2 7
06 18.08 З 6 4000 м в посл. час дождь {морось} 9/6 210 м
[Frnb Ac As Ci fib]
+23.8 +21.8 89 +31 +33 очень
душно
1005.9 924.4 0.9
09 18.08 З 6 4000 м в посл. час морось 9/9 210 м
[Frnb Ac trans Ci fib]
+25.6 +21.5 78 +33 +33 очень
душно
1003.5 922.5 1
12 18.08 З 5 4000 м {морось} 9/6 210 м
[Frnb Ac trans Ci fib]
+23.6 +20.9 85 +30 +30 очень
душно
1003.5 922.1 +25.9 1
15 18.08 З 4 4000 м {морось} 10/8 210 м
[Frnb Ac As]
+21.8 +20.6 93 +28 +28 душно 1005.8 923.7 1
18 18.08 З 6 4000 м в посл. час морось 10/8 210 м
[Frnb Ac As]
+21.4 +20.5 95 +27 +27 душно 1007.0 924.9 2

 

Местоположение метеостанции Belgaum Airport (Karnataka, Индия): широта 15.85 долгота 74.62 высота над уровнем моря 747 м.

В архиве по умолчанию представлена погода в Belgaum Airport за последнюю неделю. Архивные данные за месяц целиком и за предыдущие месяцы, начиная с января 2011 года, Вы можете получить, выбрав интересующий диапазон дат из раскрывающегося списка и нажав кнопку "Ввод!".


*Определитесь, кто Вы:
робот инопланетянин человек

Внимание! Время в таблицах - всемирное. Для получения местного времени необходимо прибавить поправку, которая в Belgaum Airport равна 5.5 ч.

Смотрите также архив погоды в соседних городах и на ближайших метеорологических станциях:

Погода в Belgaum (Karnataka, Индия) (10 км)
Погода в Dharwad (Karnataka, Индия) (56 км)
Погода в Panjim (Goa, Индия) (95 км)
Погода в Mormugao (Goa, Индия) (102 км)
Погода в Kolhapur (Maharashtra, Индия) (103 км)
Погода в Vengurla (Maharashtra, Индия) (106 км)
Погода в Sangli (Maharashtra, Индия) (111 км)
Погода в Gadag (Karnataka, Индия) (118 км)
Погода в Karwar (Karnataka, Индия) (130 км)
Погода в Haveri (Karnataka, Индия) (145 км)

Пояснения к столбцам:

Ветер - указаны скорость ветра в м/с - средняя за 10 мин, порывы в срок и между сроками (в фигурных скобках) и направление, откуда дует ветер: С - северный, СВ - северо-восточный, В - восточный, ЮВ - юго-восточный, Ю - южный, ЮЗ - юго-западный, З - западный, СЗ - северо-западный.
Видимость - горизонтальная дальность видимости в метрах или километрах. При видимости от 1 до 10 км при отсутствии осадков обычно наблюдается дымка, при ухудшении видимости до 1 км и менее - туман. В сухую погоду видимость может ухудшаться дымом, пылью или мглою.
Явления - указаны атмосферные явления, наблюдавшиеся в срок или в последний час перед сроком; фигурными скобками обозначены явления, наблюдавшиеся между сроками (за 1-3 часа до срока); квадратными скобками обозначены град или гололедные отложения с указанием их диаметра в мм.
Облачность - указаны через наклонную черту общая и нижняя облачность в баллах и высота нижней границы облаков в метрах; квадратными скобками обозначены формы облаков: Ci - перистые, Cs - перисто-слоистые, Cc - перисто-кучевые, Ac - высококучевые, As - высокослоистые, Sc - слоисто-кучевые, Ns - слоисто-дождевые, Cu - кучевые, Cb - кучево-дождевые. Подробнее классификацию облаков см. в Атласе облаков (PDF).
T - Температура воздуха - температура, измеренная на высоте 2 м над землей.
Td - Температура точки росы - температура, при понижении до которой содержащийся в воздухе водяной пар достигнет насыщения.
f - Относительная влажность воздуха - влажноcть воздуха, измеренная на высоте 2 м над землей.
Te - Эффективная температура - температура, которую ощущает одетый по сезону человек в тени. Характеристика душности погоды. При расчете учитывается влияние влажности воздуха и скорости ветра на теплоощущения человека.
Tes - Эффективная температура на солнце - температура, которую ощущает человек, с поправкой на солнечный нагрев. Характеристика знойности погоды. Зависит от высоты солнца над горизонтом, облачности и скорости ветра. Ночью, в пасмурную погоду, а также при ветре 12 м/с и более поправка равна нулю.
P - Атмосферное давление - приведенное к уровню моря атмосферное давление.
Po - Атмосферное давление - измеренное на уровне метеостанции атмосферное давление.
Tmin - Минимальная температура - минимум температуры воздуха на высоте 2 м над землей.
Tmax - Максимальная температура - максимум температуры воздуха на высоте 2 м над землей.
R - Количество осадков - Количество выпавших осадков за период времени, мм. При наведении курсора мыши на число - период времени, за который выпало указанное количество осадков.
R24 - Количество осадков - Количество выпавших осадков за 24 часа, мм.
S - Снежный покров - Высота снежного покрова, см. При наведении курсора мыши на число - состояние снежного покрова и степень покрытия местности в баллах.